Location: Newark
(44.6768°N, 22.5302°E)
Time: 20:50:19
(UTC+00:00)

AO-92 - Pass Details

Date: 28 June 2022
Orbit: 469 x 481 km, 97.4° (Epoch: 13 August)

Event Time Altitude Azimuth Distance (km) Brightness Sun altitude
Exits shadow 21:05:47 27° 231° (SW) 951 ? -19.2°
Maximum altitude 21:06:46 32° 263° (W) 847 ? -19.3°
Drops below altitude 10° 21:10:01 10° 328° (NNW) 1,663 ? -19.5°
Sets 21:12:15 0° 339° (NNW) 2,550 ? -19.6°
